Regional Weather Roundup
Issued by NWS

Home | Current Version | Previous Version | Graphics & Text | Print | Product List | Glossary On
Versions: 1 2 3 4 5 6 7 8 9 10 11 12 13 14 15 16 17 18 19 20 21 22 23 24 25 26 27 28 29 30 31 32 33 34 35 36 37 38 39 40 41 42 43 44 45 46 47 48 49 50
000
ASUS43 KOAX 210410
RWRNE

WEATHER ROUNDUP FOR NEBRASKA
NATIONAL WEATHER SERVICE OMAHA NE
1100 PM CDT SAT SEP 20 2014

NOTES: SATELLITE DATA IS BEING USED TO AUGMENT CLOUD COVER ABOVE
       12000 FEET.
       "FAIR" INDICATES FEW OR NO CLOUDS BELOW 12,000 FEET WITH NO
       SIGNIFICANT WEATHER AND/OR OBSTRUCTIONS TO VISIBILITY.

  * THESE STATIONS DO NOT REPORT WEATHER SUCH AS RAIN...SNOW OR FOG.

NEZ001>004-019>022-054>056-210500-
NEBRASKA PANHANDLE

CITY           SKY/WX    TMP DP  RH WIND       PRES   REMARKS
SCOTTSBLUFF    CLEAR     58  42  55 CALM      30.29R
ALLIANCE       CLEAR     52  40  63 CALM      30.27R
CHADRON        CLEAR     50  41  71 SW10      30.26R
KIMBALL        MOCLDY    59  41  51 NE3       30.31R
SIDNEY         CLEAR     61  43  51 NE9       30.30R
$$

NEZ057>060-069>072-079>082-210500-
SOUTHWEST NEBRASKA

CITY           SKY/WX    TMP DP  RH WIND       PRES   REMARKS
NORTH PLATTE   CLEAR     60  45  57 CALM      30.20R
IMPERIAL       CLEAR     62  47  57 NE7       30.22R
LEXINGTON      CLEAR     61  50  65 N5        30.17R
MCCOOK         CLEAR     65  50  58 NE6       30.17R
OGALLALA       CLEAR     64  46  50 NE9       30.23R
$$

NEZ005>010-023>029-035>040-094-210500-
NORTH CENTRAL NEBRASKA

CITY           SKY/WX    TMP DP  RH WIND       PRES   REMARKS
VALENTINE      CLEAR     53  41  63 W7        30.19R
AINSWORTH      CLEAR     54  43  66 W6        30.18R
BROKEN BOW     CLEAR     60  45  57 N10       30.16R
O`NEILL        CLEAR     56  46  69 NW7       30.13R
ORD            CLEAR     58  46  64 NW7       30.13R
THEDFORD       CLEAR     58  43  57 NW3       30.21R
$$

NEZ041-046>049-061>064-073>077-083>087-210500-
SOUTH CENTRAL NEBRASKA

CITY           SKY/WX    TMP DP  RH WIND       PRES   REMARKS
GRAND ISLAND   CLEAR     64  50  60 N8        30.13R
AURORA         CLEAR     61  52  72 N7        30.11R
HASTINGS       CLEAR     63  51  65 N7        30.13R
HEBRON         CLEAR     62  57  82 CALM      30.08R
HOLDREGE       CLEAR     62  50  66 CALM      30.16R
KEARNEY *      CLEAR     63  48  59 NW6       30.15R
YORK           CLEAR     63  54  72 N7        30.10R
$$

NEZ011>018-030>034-042>045-210500-
NORTHEAST NEBRASKA

CITY           SKY/WX    TMP DP  RH WIND       PRES   REMARKS
NORFOLK        CLEAR     62  49  62 NW7       30.09R
ALBION         CLEAR     61  47  60 N3        30.12R
BLAIR          CLEAR     70  51  51 N14G20    30.05R
COLUMBUS *     CLEAR     63  50  63 NW5       30.11R
FREMONT        CLEAR     68  51  54 N7        30.07R
TEKAMAH        CLEAR     65  52  62 N8        30.05R
WAYNE          CLEAR     56  51  83 CALM      30.08R
$$

NEZ050>053-065>068-078-088>093-210500-
SOUTHEAST NEBRASKA

CITY           SKY/WX    TMP DP  RH WIND       PRES   REMARKS
LINCOLN        CLEAR     70  54  56 N15G22    30.07R
OMAHA EPPLEY   CLEAR     70  53  54 N12       30.04R
BEATRICE       CLEAR     63  58  83 NW9       30.05R
FALLS CITY     CLEAR     70  67  90 W8        29.99R
NEBRASKA CITY    N/A     72  48  43 NW13      30.02R
PLATTSMOUTH    CLEAR     70  53  54 N9G16     30.04R
$$

NEZ044-045-051>053-067-210500-
OMAHA AREA

CITY           SKY/WX    TMP DP  RH WIND       PRES   REMARKS
OMAHA EPPLEY   CLEAR     70  53  54 N12       30.04R
BLAIR          CLEAR     70  51  51 N14G20    30.05R
FREMONT        CLEAR     68  51  54 N7        30.07R
MILLARD        CLEAR     72  54  52 N8        30.04R
OFFUTT AFB     CLEAR     73  54  52 N10G21    30.03R
PLATTSMOUTH    CLEAR     70  53  54 N9G16     30.04R
WAHOO          FAIR      65  52  62 NW7       30.07R
$$


USA.gov is the U.S. government's official web portal to all federal, state and local government web resources and services.